User: anonymous
Location: Oshawa
(43.9000°N, 78.8670°W)
Time: 10:24:15
(UTC-04:00)
Language:

Iridium 46 - Orbit

View from above orbital plane
View from above orbital plane
View from above satellite
View from above satellite

Ground track
Ground track

The orbit data is extracted from the following two-line orbital elements,

1 24905U 97043C   14265.27783266  .00000275  00000-0  91108-4 0   114
2 24905 086.3961 313.4594 0002360 107.0986 253.0469 14.34217882894657
Epoch (UTC): 22 September 2014 06:40:04
Eccentricity: 0.0002360
inclination: 86.3961°
perigee height: 776 km
apogee height: 779 km
right ascension of ascending node: 313.4594°
argument of perigee: 107.0986°
revolutions per day: 14.34217882
mean anomaly at epoch: 253.0469°
orbit number at epoch: 89465

The dashed part of the orbit path shows where the satellite is in the earth's shadow,  

DLR